Regional Weather Roundup
Issued by NWS Wakefield, VA

Home | Current Version | Previous Version | Graphics & Text | Print | Product List | Glossary On
Versions: 1 2 3 4 5 6 7 8 9 10 11 12 13 14 15 16 17 18 19 20 21 22 23 24 25 26 27 28 29 30 31 32 33 34 35 36 37 38 39 40 41 42 43 44 45 46 47 48 49 50
961
ASUS41 KAKQ 270513
RWRAKQ

REGIONAL WEATHER ROUNDUP
NATIONAL WEATHER SERVICE WAKEFIELD VA
100 AM EDT WED JUL 27 2016

Note: "fair" indicates few or no clouds below 12,000 feet with no
significant weather and/or obstructions to visibility. * = Denotes
station may not report precipitation (e.g., rain,snow,etc.),
thunder or fog.

VAZ042-051-052>054-056-270600-
NORTHERN VIRGINIA

CITY           SKY/WX    TMP DP  RH WIND       PRES   REMARKS
WASH NATIONAL  CLOUDY    84  72  67 S3        29.95R
DULLES         MOCLDY    80  73  79 SW12      29.97R
FORT BELVOIR   FAIR      80  74  83 W2        29.95R
QUANTICO       FAIR      79  73  82 NW9       29.96R
FREDERICKSBRG* FAIR      77  73  90 CALM      29.94F
STAFFORD*      FAIR      76  71  85 NW5       30.00F
WARRENTON      FAIR      75  69  80 CALM      29.97F
CULPEPER*      FAIR      76  73  91 CALM      29.98F
MANASSAS*      MOCLDY    79  73  83 SW3       29.97R
LEESBURG*      FAIR      81  77  89 W6        29.98R
WINCHESTER     FAIR      79  70  73 W3        29.99F
FRONT ROYAL*   FAIR      75  72  88 S5        29.99S
LURAY*         FAIR      73  73 100 CALM      30.01S
$$

VAZ048-049-060>072-079>083-270600-
CENTRAL AND SOUTH CENTRAL VIRGINIA

CITY           SKY/WX    TMP DP  RH WIND       PRES   REMARKS
RICHMOND       LGT RAIN  75  74  96 W6        29.93F
CHESTERFIELD*  MOCLDY    75  61  60 SW7       29.96S
PETERSBURG*    LGT RAIN N/A N/A N/A S5        29.96F
HANOVER        FAIR      73  70  90 N3        29.96S
TAPPAHANNOCK*  FAIR      77  77 100 CALM      29.95F
QUINTON*       FAIR      75  75  99 NE3       29.92F
CHARLOTTSVILLE FAIR      77  73  87 W5        29.99F
GORDONSVILLE*  FAIR      76  72  85 W7        29.98S
ORANGE*          N/A     73  73 100 CALM      29.99F
LOUISA*        FAIR      77  75  94 NW5       29.97S
BUMPASS*       FAIR      72  72 100 CALM      29.96S
FARMVILLE*     CLOUDY   N/A N/A N/A CALM      30.00S
CREWE*         FAIR      74  74 100 W3        29.98F
FORT PICKETT*  FAIR      74  73  98 SW8       29.99R
CHASE CITY*    FAIR      73  72  95 CALM      30.02S
CLARKSVILLE*   FAIR      75  75 100 E6        29.99F
SOUTH HILL*    CLOUDY    74  73  98 W6        30.10R THUNDER
LAWRENCEVILLE* FAIR      74  74  99 SW6       30.00S
EMPORIA*       TSTM      73  73 100 CALM      29.99S
$$

VAZ088>098-270600-
SOUTHEAST VIRGINIA

CITY           SKY/WX    TMP DP  RH WIND       PRES   REMARKS
NORFOLK        FAIR      81  73  76 S6        29.94F
VIRGINIA BEACH CLOUDY    84  73  69 SW5       29.93F
NORFOLK NAVAL  MOCLDY    80  73  79 SW5       29.95F
WEST POINT*    MOCLDY    78  76  92 NE3       29.93F
SALUDA*        FAIR      79  79 100 CALM      29.93F
NEWPORT NEWS   FAIR      80  74  81 W6        29.94F
LANGLEY AFB    FAIR      79  75  85 SW3       29.94F
FORT EUSTIS    MOCLDY    79  74  86 VRB2      29.92F
WILLIAMSBURG*  FAIR      81  77  89 CALM      29.94F
HR EXEC AP*    MOCLDY    75  73  94 W3        29.98S
FRANKLIN*      MOCLDY    76  73  91 CALM      29.97S THUNDER
US460-WAKEFLD  FAIR      76  73  91 VRB5      29.95F
$$

VAZ020-022-025-037-045-270600-
WEST CENTRAL AND SOUTHWEST VIRGINIA

CITY           SKY/WX    TMP DP  RH WIND       PRES   REMARKS
STAUNTON*      MOCLDY    72  71  99 CALM      30.05F FOG
WAYNESBORO*    FAIR      73  71  93 S3        30.05F
HOT SPRINGS VA NOT AVBL
LYNCHBURG      FAIR      71  71 100 CALM      30.04S
DANVILLE       TSTM      73  72  96 SE6       30.01F
SOUTH BOSTON*  FAIR      73  72  95 NW3       30.01R
MARTINSVILLE   CLOUDY    77  71  83 SE6       30.04F
ROANOKE        FAIR      77  73  87 N7        30.06S
BLACKSBURG     FAIR      73  71  93 CALM      30.13S
DUBLIN*        FAIR      75  72  88 CALM      30.11S
MARION*        FAIR      73  70  92 CALM      30.16S
HILLSVILLE*    MOCLDY    74  72  95 SW3       30.12S
RICHLANDS*     FAIR      74  73  95 CALM      30.13S
WISE*            N/A     72  70  94 S3        30.15S
ABINGDON*      FAIR      75  71  87 CALM      30.10F
$$

MDZ021>025-VAZ099-100-270600-
SOUTHERN MARYLAND AND THE DELMARVA PENINSULA

CITY           SKY/WX    TMP DP  RH WIND       PRES   REMARKS
PATUXENT RIVER MOCLDY    81  78  91 SW7       29.93S
BAY BRIDGE APT CLOUDY    84  79  84 SW6       29.93S HX  96
LEONARDTOWN      N/A    N/A N/A N/A MISG        N/A
DOVER          NOT AVBL
GEORGETOWN     MOCLDY    78  73  84 SW3       29.94S
EASTON         MOCLDY    83  82  94 CALM      29.97S HX  98
CAMBRIDGE      CLOUDY    79  77  94 CALM      29.93R
SALISBURY      CLOUDY    77  74  90 CALM      29.94R
OCEAN CITY     CLOUDY    75  73  93 CALM      29.94S
WALLOPS ISLAND FAIR      81  77  88 CALM      29.93F
ACCOMACK*      LGT RAIN  81  77  89 CALM      29.93F
$$

NCZ012>017-030>032-270600-
NORTH CENTRAL AND EASTERN NORTH CAROLINA

CITY           SKY/WX    TMP DP  RH WIND       PRES   REMARKS
ROANOKE RAPIDS FAIR      75  73  94 N7        29.99R
RALEIGH        CLOUDY    78  75  90 W3        29.98S
ELIZABETH CITY CLOUDY    77  75  93 CALM      29.95F
AHOSKIE*       CLOUDY    75  74  98 N6        29.98R
EDENTON*       CLOUDY    85  77  77 SW9       29.96S HX  96
CURRITUCK*     CLOUDY    79  78  97 CALM      29.96F
KILL DEVIL HLS CLOUDY    81  77  87 SW5       29.95S
MANTEO           N/A     82  78  88 W8        29.97S
CAPE HATTERAS  CLOUDY    83  78  85 W12       29.98S
TARBORO*       MOCLDY    80  77  92 CALM      29.98R
GOLDSBORO      PTCLDY    82  79  90 S5        29.97S
WASHINGTON     MOCLDY    81  74  77 W8        29.97S
GREENVILLE     MOCLDY    81  79  94 W5        29.99S
NEW BERN       CLEAR     79  74  84 SW6       29.99F
WILMINGTON     CLEAR     81  76  84 SW8       30.00F
$$

VAZ048-270600-
ELSEWHERE

CITY           SKY/WX    TMP DP  RH WIND       PRES   REMARKS
HARRISBURG PA  MOCLDY    78  74  87 NW8       29.93R
BALTIMORE      CLOUDY    82  72  71 S3        29.93R
ANNAPOLIS      CLOUDY    83  75  77 SW6       29.92R
ANDREWS AFB    MOCLDY    81  71  71 W6        29.94R
PHILADELPHIA   CLOUDY    82  74  76 SW3       29.93R
GREENSBORO     CLOUDY    81  74  79 SW3       30.01S
ROCKY MOUNT    CLOUDY    80  78  94 S3        29.98S
$$

VAZ100-270600-
MARINE

STATION/POSITION TIME  TEMP    WIND        PRES    WAVE   SWELL
                       AIR SEA DIR/SP/G            HT/PER HT/PER
                 (UTC) (F)     (DEG/KT/KT) (MB)    (FT/S) (FT/S)
$$




USA.gov is the U.S. government's official web portal to all federal, state and local government web resources and services.